Date,TemperatureHighF,TemperatureAvgF,TemperatureLowF,DewpointHighF,DewpointAvgF,DewpointLowF,HumidityHigh,HumidityAvg,HumidityLow,PressureMaxIn,PressureMinIn,WindSpeedMaxMPH,WindSpeedAvgMPH,GustSpeedMaxMPH,PrecipitationSumIn
2013-4-1,62.8,45.7,33.3,49.3,36.3,7.4,99,74,32,29.07,28.78,9,3,21,0.22
2013-4-2,40.1,33.1,28.0,18.9,11.1,1.8,58,41,20,29.22,29.06,9,3,18,0.00
2013-4-3,45.0,35.6,28.8,16.9,8.7,-3.9,56,35,14,29.43,29.20,8,4,20,0.02
2013-4-4,55.6,41.0,28.2,26.3,10.5,-4.9,63,34,10,29.57,29.31,7,2,13,0.00
2013-4-5,61.9,45.4,36.0,30.6,22.1,2.0,75,47,10,29.32,28.90,7,2,14,0.00
2013-4-6,47.5,38.1,30.7,25.2,2.3,-13.2,59,27,10,29.60,29.15,7,2,14,0.00
2013-4-7,56.1,43.1,29.1,41.7,24.0,6.6,86,49,19,29.60,29.26,14,3,28,0.24
2013-4-8,66.6,53.3,43.3,45.1,38.9,26.9,99,65,24,29.35,29.23,6,2,14,0.00
2013-4-9,72.7,57.5,45.9,55.5,42.4,34.8,99,63,29,29.35,29.13,6,2,13,0.04
2013-4-10,66.2,52.8,44.4,51.4,46.0,-7.3,99,81,10,29.28,29.10,6,1,15,0.18
2013-4-11,50.4,19.3,0.0,47.6,41.7,22.1,99,29,34,29.41,29.08,4,1,6,0.05
2013-4-12,47.7,37.6,36.0,46.9,36.2,10.3,99,95,90,29.42,29.08,9,2,13,0.07
2013-4-13,53.4,43.7,34.5,42.8,35.7,32.6,99,77,47,29.45,29.25,7,1,12,0.05
2013-4-14,54.7,44.8,37.9,39.9,31.0,6.5,95,62,14,29.73,29.43,7,1,98,0.00
2013-4-15,59.9,46.5,33.8,37.7,29.0,25.2,83,53,27,29.90,29.73,6,1,11,0.00
2013-4-16,66.9,52.0,33.8,52.1,41.1,11.4,99,70,28,29.91,29.58,13,3,30,0.11
2013-4-17,67.5,58.3,51.4,54.2,37.8,14.2,97,60,13,29.85,29.58,5,2,13,0.00
2013-4-18,64.4,52.4,41.5,45.2,29.1,18.2,79,44,20,29.93,29.65,10,3,21,0.00
2013-4-19,74.5,62.2,51.1,65.1,58.7,45.3,99,89,59,29.66,29.17,13,4,30,0.13
2013-4-20,64.8,53.1,42.3,64.5,39.4,22.0,99,65,28,29.74,29.12,11,2,22,0.66
2013-4-21,53.2,42.9,32.5,28.7,17.4,3.7,68,39,13,30.18,29.74,6,2,14,0.00
2013-4-22,51.6,41.6,31.5,34.0,28.2,15.9,92,63,25,30.24,30.09,11,4,16,0.00
2013-4-23,40.8,39.2,37.0,40.6,37.3,30.4,99,93,72,30.09,29.62,7,3,10,0.01
2013-4-24,75.4,55.4,39.9,52.4,42.5,23.6,99,71,16,29.62,29.31,11,2,21,0.02
2013-4-25,65.1,55.0,46.4,55.9,31.8,9.0,99,50,14,29.79,29.34,8,2,18,0.02
2013-4-26,63.3,50.3,38.5,39.2,31.1,21.1,84,50,25,29.94,29.78,7,2,11,0.00
2013-4-27,66.2,51.5,36.3,44.6,34.6,23.2,99,60,21,29.94,29.79,7,1,13,0.00
2013-4-28,72.0,55.2,39.6,44.1,30.9,18.6,95,48,14,29.86,29.72,8,1,16,0.00
2013-4-29,69.6,57.1,45.7,47.8,32.2,7.3,92,47,14,29.79,29.70,9,2,14,0.00
2013-4-30,72.0,58.2,45.7,35.4,18.5,4.3,55,25,10,29.88,29.76,5,1,10,0.00